Vertical_Velocity
-3 7 1 -1 -0 -5 -5 0 1 -1 2 1 -1 -1 -2 -1 -1 0 2 1 -1 -2 -1 -6 -1 7 1 -1 1 -2 -3 -0 -2 0 -3 -4 -4 -3 1 4 -1 -3 -1
-2 1 1 4 2 -7 -5 -2 -0 2 -1 0 -0 0 1 2 2 -0 2 -0 -3 -4 -2 1 -1 1 5 0 1 2 -1 3 3 -4 -5 -1 0 1 4 -0 3 4 5
1 -1 3 -0 -2 -5 -6 -4 -2 3 2 2 2 2 -0 1 0 -0 -0 1 -0 -1 -1 -4 -2 -2 -0 7 1 -0 3 0 -2 -3 -2 1 -6 1 -5 0 4 -1 -2
0 -3 -2 -2 -3 -5 0 -5 -0 3 1 4 2 2 -1 3 -0 -2 3 0 -0 -2 -0 -0 -2 -3 2 -2 1 -1 7 0 4 -3 -5 -5 2 5 -1 -3 -8 -4 -4
2 -4 -10 -0 3 -1 -2 -2 3 0 -0 4 6 3 4 0 -3 3 5 3 1 1 -3 -1 -3 -1 2 -1 7 -0 2 4 0 -3 -2 0 0 -1 4 -0 -3 -3 -4
-3 -4 4 1 1 -3 1 -1 2 -0 2 4 2 -0 1 -2 -4 0 7 2 8 2 -3 -3 -4 -1 1 1 -1 -1 4 1 1 4 3 1 -7 -1 2 3 1 1 -10
-3 5 -1 5 -2 -4 3 -0 0 2 4 1 -2 1 -4 -2 4 12 10 0 4 5 -2 -1 -1 -1 1 1 -0 4 -3 -2 3 8 -0 2 -2 4 2 -3 2 -1 -3
1 0 2 1 -0 3 2 -1 2 3 -2 -4 -3 1 -0 32 17 7 2 2 0 -1 -1 5 4 4 2 0 4 0 9 7 1 -2 -2 -5 -3 -1 -1 3 1 -2 -1
-3 -8 -4 1 6 1 -3 2 1 1 -1 -8 -4 0 5 -82 19 4 6 -1 -6 -3 -0 3 1 7 10 4 10 7 -1 -1 3 1 1 1 4 0 2 -3 -4 2 -5
-5 -16 1 5 4 -4 5 0 -2 -2 1 -2 -1 13 8 -0 5 10 1 -1 -1 -0 2 1 3 0 7 2 -5 -3 -3 0 6 3 3 -0 -1 1 2 0 -0 -2 5
-1 25 10 -0 -6 4 7 2 -1 -2 5 0 6 5 3 5 1 -7 -8 3 1 2 1 1 3 2 3 1 1 4 8 4 -1 -1 -2 -2 -1 -1 1 3 2 4 1
25 0 -1 3 0 -1 4 3 -5 6 1 0 5 -3 0 -6 -2 -7 -4 3 -5 1 1 -2 2 -1 -2 -5 -2 3 -1 -3 1 2 -2 -4 -3 -1 -1 -2 -1 -0 -1
4 1 1 6 7 5 3 -4 -3 5 4 3 2 -1 -3 -5 3 -1 3 2 3 1 -5 -4 -1 1 0 2 2 -1 0 -1 -1 -0 -0 -1 -2 -3 -2 -1 1 -0 -0
-2 2 4 5 1 6 7 4 7 1 2 -0 -1 -2 -2 -7 -3 0 4 1 -2 -1 -2 -2 -1 -0 -0 -0 -0 -1 -1 -1 0 -1 -3 -2 -1 -2 1 0 -3 -1 -1
5 4 7 4 7 1 2 8 7 9 15 -9 -6 -5 -11 -2 -6 -2 -4 -6 -3 1 2 1 0 -1 1 -2 -3 -0 1 -2 -1 4 2 0 -2 -1 1 -0 -2 -2 -2
9 -3 -0 -1 4 14 4 -4 22 -14 1 2 6 -7 -2 6 5 1 2 -4 -2 -3 -1 -0 -2 0 0 1 1 -3 -1 -1 1 1 -1 -0 1 0 1 0 -1 -0 -1
3 9 -2 -5 2 18 16 -86 -6 -4 6 12 -0 -10 -6 -1 0 -2 -4 2 2 -6 -2 -3 0 -1 -2 -4 -2 -3 -2 0 3 -0 2 3 1 1 2 -1 -2 -1 -3
4 9 10 -9 19 -11 5 10 -5 5 -7 -4 3 -12 2 9 2 0 -2 1 -4 -2 -4 -3 -1 -0 -2 -2 -3 -1 -2 -4 -4 -3 -2 -4 -3 0 0 -2 -0 -1 -1
2 -2 4 3 -4 -2 9 1 -1 11 12 6 -1 8 8 -7 -6 0 1 -1 -0 -4 -0 -2 -5 -1 -2 -0 -2 3 -0 -1 1 2 1 2 0 -2 -2 0 -0 -0 1
-14 7 7 1 -1 2 1 3 -3 2 6 -4 3 -1 2 -12 -2 -1 -1 -2 0 2 1 -2 -1 -3 0 4 6 2 -3 1 0 -2 -0 -1 -2 -3 -1 -1 -0 -2 -1
5 -6 9 3 5 8 4 -4 -4 -19 -42 -22 6 6 -1 1 2 0 -6 -0 0 -1 -2 -6 -6 0 0 1 -0 -3 -3 -3 -1 -4 -4 -3 -2 2 1 0 -1 1 2
6 -1 9 1 19 7 8 11 -7 -2 7 -7 -6 2 8 6 1 -2 -3 -0 -7 -2 -1 -1 -0 1 4 2 3 1 0 -3 -5 -2 -2 -2 0 0 1 -0 -1 -1 -2
-17 -14 -22 -4 -19 1 -9 1 5 8 2 4 -0 4 -9 -2 -5 -4 -0 -1 1 2 0 3 4 3 -0 4 3 -3 -3 -2 0 -0 -2 -1 1 -1 -0 -0 -1 -2 -1
-7 8 -3 -6 -4 -3 4 -3 -18 7 -3 2 -3 2 -3 -4 -1 -2 -2 0 1 -2 3 7 6 0 -0 -2 2 -2 -1 2 -0 -1 -1 -1 0 -0 -1 -2 -1 1 -0
-2 -1 -4 1 -0 -9 -15 -16 -9 10 1 -3 -0 -6 1 -1 -4 -3 1 0 -2 -4 3 3 1 -2 -4 3 3 -1 -4 -5 -3 -0 -2 -2 -1 -1 -1 -2 -1 -1 1
5 6 6 3 2 1 6 14 1 -4 -4 -0 2 6 -1 -3 2 3 1 -1 -3 -5 -4 -2 -5 -4 1 1 -1 -5 -6 -1 -1 -0 0 -1 -0 0 -1 -1 2 -0 -1
Height
1484 1489 1493 1498 1504 1510 1514 1518 1522 1526 1529 1532 1535 1538 1540 1542 1544 1547 1549 1551 1552 1554 1554 1556 1558 1558 1558 1561 1562 1563 1563 1564 1564 1564 1565 1565 1564 1564 1564 1563 1561 1560 1559
1476 1483 1487 1492 1497 1502 1506 1511 1515 1519 1522 1525 1528 1531 1535 1537 1540 1542 1545 1546 1548 1549 1551 1552 1552 1555 1556 1557 1559 1560 1560 1560 1560 1561 1562 1562 1561 1561 1559 1558 1558 1556 1554
1469 1474 1481 1485 1488 1493 1497 1503 1507 1512 1515 1519 1522 1525 1529 1532 1535 1538 1539 1541 1543 1545 1547 1548 1550 1553 1553 1553 1554 1556 1557 1558 1558 1557 1557 1558 1557 1556 1555 1553 1550 1549 1548
1459 1466 1471 1475 1479 1484 1490 1495 1498 1503 1507 1512 1516 1520 1524 1528 1531 1532 1532 1534 1537 1539 1542 1544 1546 1547 1548 1550 1550 1552 1553 1553 1553 1553 1553 1552 1551 1551 1549 1547 1544 1543 1542
1447 1452 1458 1466 1471 1476 1482 1486 1491 1496 1500 1505 1511 1515 1518 1521 1523 1524 1526 1528 1531 1533 1536 1539 1540 1541 1544 1545 1546 1547 1549 1548 1548 1548 1548 1546 1545 1544 1543 1540 1538 1537 1535
1440 1442 1448 1456 1462 1466 1472 1477 1482 1486 1492 1498 1504 1508 1511 1515 1517 1518 1519 1521 1523 1525 1529 1533 1536 1537 1538 1540 1541 1543 1544 1543 1542 1542 1542 1541 1541 1538 1536 1535 1532 1530 1528
1430 1436 1441 1447 1452 1456 1462 1468 1472 1478 1485 1492 1497 1501 1508 1510 1511 1510 1513 1515 1518 1522 1525 1527 1528 1531 1534 1535 1537 1538 1538 1539 1538 1537 1537 1536 1534 1533 1531 1529 1527 1525 1523
1421 1426 1432 1437 1442 1448 1453 1459 1464 1471 1477 1484 1489 1497 1504 1502 1503 1507 1509 1508 1512 1517 1519 1522 1524 1526 1528 1531 1532 1532 1533 1534 1534 1533 1532 1531 1530 1528 1526 1523 1521 1519 1517
1412 1417 1422 1428 1433 1438 1443 1450 1457 1464 1470 1476 1481 1485 1489 1487 1501 1501 1500 1501 1507 1510 1514 1517 1519 1522 1525 1527 1528 1528 1528 1527 1528 1527 1526 1525 1524 1522 1520 1517 1515 1513 1510
1400 1404 1410 1418 1425 1429 1435 1442 1449 1456 1463 1470 1474 1478 1481 1485 1491 1495 1496 1498 1501 1505 1509 1512 1515 1517 1519 1520 1522 1523 1523 1523 1522 1521 1520 1519 1517 1515 1513 1511 1509 1507 1506
1388 1393 1400 1406 1414 1422 1428 1434 1443 1451 1459 1464 1469 1472 1475 1479 1483 1489 1492 1493 1496 1501 1504 1507 1509 1511 1513 1515 1517 1519 1519 1519 1519 1518 1517 1514 1511 1508 1507 1507 1505 1503 1501
1380 1387 1393 1397 1404 1413 1419 1426 1440 1447 1451 1454 1456 1466 1471 1476 1480 1483 1487 1490 1492 1495 1497 1502 1504 1506 1508 1508 1511 1511 1511 1511 1510 1511 1510 1508 1505 1505 1504 1503 1502 1500 1498
1375 1380 1385 1391 1397 1402 1409 1421 1431 1437 1442 1445 1451 1457 1465 1470 1477 1478 1483 1485 1488 1491 1493 1496 1499 1501 1503 1504 1505 1506 1507 1508 1508 1508 1507 1505 1503 1502 1501 1500 1498 1496 1493
1365 1372 1378 1382 1387 1396 1405 1415 1421 1427 1432 1438 1445 1453 1459 1466 1471 1476 1479 1481 1484 1487 1490 1491 1495 1497 1499 1501 1501 1502 1502 1503 1503 1504 1503 1501 1500 1499 1497 1495 1492 1489 1486
1352 1366 1373 1380 1388 1392 1399 1408 1415 1422 1422 1432 1440 1446 1453 1459 1465 1471 1474 1477 1481 1484 1486 1488 1490 1492 1493 1494 1497 1499 1500 1500 1500 1499 1498 1497 1495 1494 1493 1490 1487 1486 1484
1350 1358 1369 1377 1385 1392 1399 1412 1409 1423 1431 1434 1435 1443 1451 1458 1462 1466 1469 1472 1476 1479 1482 1484 1487 1489 1491 1492 1493 1495 1495 1496 1495 1494 1494 1492 1491 1490 1488 1486 1485 1483 1481
1352 1358 1366 1372 1375 1385 1391 1397 1423 1426 1433 1431 1434 1435 1453 1455 1458 1462 1466 1470 1472 1475 1479 1481 1484 1484 1486 1488 1488 1489 1490 1490 1491 1490 1490 1489 1487 1486 1484 1482 1481 1480 1478
1357 1362 1360 1375 1369 1387 1399 1399 1421 1420 1423 1428 1431 1438 1449 1453 1451 1458 1463 1467 1468 1472 1476 1479 1482 1483 1483 1483 1486 1486 1488 1487 1487 1487 1486 1484 1483 1481 1480 1479 1478 1477 1475
1360 1369 1379 1379 1384 1395 1403 1405 1418 1424 1426 1427 1431 1439 1442 1446 1450 1458 1460 1464 1467 1469 1471 1473 1476 1478 1480 1480 1481 1482 1480 1482 1482 1482 1481 1479 1479 1478 1477 1476 1475 1474 1472
1371 1384 1385 1386 1392 1398 1402 1409 1416 1425 1423 1432 1436 1442 1442 1445 1447 1452 1456 1461 1464 1466 1468 1470 1472 1473 1475 1477 1478 1479 1480 1480 1478 1477 1476 1476 1475 1474 1474 1473 1472 1470 1469
1378 1389 1390 1392 1397 1399 1400 1406 1412 1416 1426 1432 1439 1440 1444 1445 1446 1450 1454 1458 1460 1462 1464 1466 1470 1471 1472 1474 1474 1474 1474 1475 1475 1473 1472 1472 1472 1472 1470 1469 1468 1467 1465
1382 1389 1391 1397 1400 1402 1407 1406 1411 1419 1423 1428 1437 1441 1444 1445 1446 1449 1452 1455 1458 1460 1461 1464 1465 1467 1468 1469 1470 1469 1469 1468 1469 1469 1468 1468 1468 1468 1467 1466 1465 1464 1462
1387 1389 1388 1393 1392 1400 1408 1414 1417 1417 1423 1425 1433 1436 1439 1441 1444 1447 1450 1453 1454 1456 1458 1460 1462 1462 1464 1464 1466 1466 1466 1465 1464 1464 1464 1465 1465 1464 1462 1462 1462 1461 1460
1393 1393 1396 1396 1395 1401 1408 1410 1415 1418 1421 1425 1429 1433 1436 1438 1442 1445 1447 1449 1451 1453 1456 1457 1457 1458 1461 1461 1461 1461 1462 1461 1461 1460 1460 1461 1460 1459 1458 1458 1459 1458 1456
1394 1396 1397 1399 1396 1400 1407 1412 1417 1419 1421 1424 1426 1430 1432 1435 1439 1441 1443 1445 1447 1451 1453 1453 1453 1454 1455 1456 1456 1457 1457 1456 1456 1456 1456 1456 1456 1455 1454 1455 1455 1454 1454
1395 1396 1397 1395 1399 1403 1408 1412 1413 1416 1420 1422 1424 1426 1429 1434 1436 1437 1439 1442 1444 1447 1448 1449 1447 1450 1452 1452 1454 1454 1455 1454 1453 1452 1451 1450 1451 1451 1451 1451 1451 1450 1450